Location: Bavegemberg
(50.9500°N, 3.8833°E)
Time: 13:22:52
(UTC+00:00)

Transit 2A - All Passes

Search period start: 15 May 2026 00:00
Search period end: 25 May 2026 00:00
Orbit: 594 x 950 km, 66.7° (Epoch: 15 May)

Date Brightness Start Highest point End Pass type
(mag) Time Alt. Az. Time Alt. Az. Time Alt. Az.
15 May - 00:41:02 10° NW 00:45:42 40° WSW 00:49:57 10° S visible
15 May - 13:44:26 10° ESE 13:46:14 11° ESE 13:48:00 10° E daylight
15 May - 15:22:19 10° SSW 15:28:18 56° ESE 15:33:52 10° NE daylight
15 May - 17:05:58 10° WSW 17:11:36 40° NW 17:16:50 10° NNE daylight
15 May - 18:52:19 10° WNW 18:56:06 18° NNW 18:59:42 10° NNE daylight
15 May - 20:38:04 10° NNW 20:41:18 16° N 20:44:21 10° NE visible
15 May - 22:21:22 10° NNW 22:26:01 32° NE 22:30:17 10° E visible
16 May - 00:04:25 10° NW 00:09:24 59° WSW 00:13:54 10° SSE visible
16 May - 14:46:17 10° S 14:51:58 41° ESE 14:57:17 10° NE daylight
16 May - 16:29:07 10° WSW 16:35:00 51° NW 16:40:27 10° NNE daylight
16 May - 18:15:05 10° WNW 18:19:16 20° NNW 18:23:13 10° NNE daylight
16 May - 20:01:20 10° NNW 20:04:24 15° N 20:07:19 10° NE visible
16 May - 21:44:57 10° NNW 21:49:19 25° NNE 21:53:19 10° E visible
16 May - 23:27:55 10° NW 23:33:01 85° SW 23:37:37 10° SSE visible
17 May - 01:12:43 10° WNW 01:15:06 14° WSW 01:17:23 10° SW visible
17 May - 14:10:30 10° S 14:15:41 30° ESE 14:20:35 10° NE daylight
17 May - 15:52:25 10° SW 15:58:29 67° NW 16:04:04 10° NE daylight
17 May - 17:37:52 10° W 17:42:28 23° NNW 17:46:48 10° NNE daylight
17 May - 19:24:26 10° NW 19:27:29 15° N 19:30:24 10° NNE daylight
17 May - 21:08:32 10° NNW 21:12:33 21° NNE 21:16:16 10° ENE visible
17 May - 22:51:28 10° NW 22:56:34 68° NE 23:01:10 10° SE visible
18 May - 00:35:24 10° WNW 00:38:59 21° WSW 00:42:22 10° SSW visible
18 May - 13:35:03 10° SSE 13:39:28 21° ESE 13:43:42 10° ENE daylight
18 May - 15:15:53 10° SW 15:22:00 88° NW 15:27:38 10° NE daylight
18 May - 17:00:43 10° W 17:05:44 28° NNW 17:10:24 10° NNE daylight
18 May - 18:47:23 10° NW 18:50:35 15° N 18:53:37 10° NNE daylight
18 May - 20:32:05 10° NNW 20:35:44 18° NNE 20:39:09 10° ENE visible
18 May - 22:15:03 10° NNW 22:20:03 49° NE 22:24:33 10° ESE visible
18 May - 23:58:32 10° NW 00:02:49 30° WSW 00:06:47 10° S visible
19 May - 13:00:07 10° SE 13:03:19 15° ESE 13:06:25 10° ENE daylight
19 May - 14:39:30 10° SSW 14:45:34 69° ESE 14:51:11 10° NE daylight
19 May - 16:23:40 10° WSW 16:29:03 34° NW 16:34:01 10° NNE daylight
19 May - 18:10:13 10° NW 18:13:41 16° NNW 18:16:59 10° NNE daylight
19 May - 19:55:33 10° NNW 19:58:52 16° NNE 20:02:01 10° NE daylight
19 May - 21:38:39 10° NNW 21:43:26 37° NE 21:47:48 10° ESE visible
19 May - 23:21:51 10° NW 23:26:34 45° WSW 23:30:53 10° S visible
20 May - 14:03:20 10° SSW 14:09:12 51° ESE 14:14:40 10° NE daylight
20 May - 15:46:44 10° WSW 15:52:25 43° NW 15:57:39 10° NNE daylight
20 May - 17:32:59 10° WNW 17:36:50 18° NNW 17:40:27 10° NNE daylight
20 May - 19:18:55 10° NNW 19:21:59 15° N 19:24:55 10° NE daylight
20 May - 21:02:16 10° NNW 21:06:46 29° NNE 21:10:54 10° E visible
20 May - 22:45:17 10° NW 22:50:15 67° WSW 22:54:45 10° SSE visible
21 May - 13:27:23 10° S 13:32:53 37° ESE 13:38:02 10° NE daylight
21 May - 15:09:56 10° SW 15:15:51 56° NW 15:21:17 10° NNE daylight
21 May - 16:55:45 10° WNW 17:00:01 21° NNW 17:04:00 10° NNE daylight
21 May - 18:42:09 10° NNW 18:45:06 15° N 18:47:54 10° NE daylight
21 May - 20:25:52 10° NNW 20:30:03 24° NNE 20:33:55 10° E visible
21 May - 22:08:48 10° NW 22:13:51 86° NE 22:18:25 10° SE visible
21 May - 23:53:14 10° WNW 23:56:02 16° WSW 23:58:43 10° SW visible
22 May - 12:51:42 10° SSE 12:56:38 26° ESE 13:01:17 10° ENE daylight
22 May - 14:33:17 10° SW 14:39:20 73° NW 14:44:53 10° NE daylight
22 May - 16:18:33 10° W 16:23:14 24° NNW 16:27:36 10° NNE daylight
22 May - 18:05:12 10° NW 18:08:11 15° N 18:11:02 10° NNE daylight
22 May - 19:49:27 10° NNW 19:53:15 20° NNE 19:56:49 10° ENE daylight
22 May - 21:32:21 10° NNW 21:37:22 61° NE 21:41:54 10° SE visible
22 May - 23:16:07 10° WNW 23:19:54 23° WSW 23:23:28 10° SSW visible
23 May - 12:16:23 10° SSE 12:20:25 19° ESE 12:24:18 10° ENE daylight
23 May - 13:56:48 10° SSW 14:02:52 84° SE 14:08:28 10° NE daylight
23 May - 15:41:26 10° W 15:46:30 29° NW 15:51:13 10° NNE daylight
23 May - 17:28:06 10° NW 17:31:16 15° N 17:34:18 10° NNE daylight
23 May - 19:12:59 10° NNW 19:16:26 17° NNE 19:19:41 10° ENE daylight
23 May - 20:55:57 10° NNW 21:00:49 44° NE 21:05:15 10° ESE visible
23 May - 22:39:18 10° NW 22:43:42 34° WSW 22:47:47 10° S visible
24 May - 11:41:47 10° SE 11:44:18 13° ESE 11:46:45 10° ENE daylight
24 May - 13:20:29 10° SSW 13:26:28 63° ESE 13:31:58 10° NE daylight
24 May - 15:04:24 10° WSW 15:09:51 36° NW 15:14:51 10° NNE daylight
24 May - 16:50:54 10° NW 16:54:24 17° NNW 16:57:43 10° NNE daylight
24 May - 18:36:25 10° NNW 18:39:34 16° NNE 18:42:32 10° NE daylight
24 May - 20:19:33 10° NNW 20:24:12 34° NE 20:28:26 10° ESE visible
24 May - 22:02:40 10° NW 22:07:26 51° WSW 22:11:47 10° SSE visible
